Location: Unspecified
(57.6483°N, 3.3184°W)
Time: 10:44:03
(UTC+00:00)

BlueWalker 3 - Pass Details

Date: 26 January 2026
Orbit: 450 x 461 km, 53.2° (Epoch: 11 February)

Event Time Altitude Azimuth Distance (km) Brightness Sun altitude
Rises 19:13:15 0° 244° (WSW) 2,455 6.5 -21.9°
Reaches altitude 10° 19:15:29 10° 235° (SW) 1,583 5.2 -22.2°
Enters shadow 19:18:00 32° 197° (SSW) 808 3.1 -22.5°
